Estación Meteorológica Peña el Pijo (Robertgarden) [ 07/19/24 12:27:36 CEST ]

Fecha Hora Presion(HPa) Temp (°C) Humedad % Rocio (°C) Viento ( m/s) Direccion Lluvia 1Hora(mm) Lluvia 24H(mm) LLuvia Total(mm)
2013-Jun-06 01:08:04 1010.200 - - - - WNW     205.12
2013-Jun-06 02:08:08 1010.100 - - - - WNW     205.12
2013-Jun-06 03:08:41 1009.600 - - - - WNW     205.12
2013-Jun-06 04:11:29 1009.400 - - - - WNW     205.12
2013-Jun-06 05:08:39 1009.200 - - - - WNW     205.12
2013-Jun-06 06:01:42 1009.300 7.3 90 5.8         205.12
2013-Jun-06 07:01:16 1009.400 6.8 91 5.5         205.12
2013-Jun-06 08:01:12 1009.500 9.2 93 8.1         205.12
2013-Jun-06 09:01:16 1009.700 12.1 87 10.0         205.12
2013-Jun-06 10:01:25 1009.800 15.8 70 10.4         205.12
2013-Jun-06 11:01:21 1009.900 21.5 51 10.9         205.12
2013-Jun-06 12:01:16 1009.800 23.7 39 8.9         205.12
2013-Jun-06 13:01:15 1010.000 25.6 30 6.8         205.12
2013-Jun-06 14:01:16 1009.800 23.6 32 5.9         205.12
2013-Jun-06 15:08:08 1009.200 - - - - S     205.12
2013-Jun-06 16:08:03 1008.900 - - - - S     205.12
2013-Jun-06 17:08:07 1008.600 - - - - ESE     205.12
2013-Jun-06 18:01:20 1010.000 20.0 36 4.4         205.12
2013-Jun-06 19:08:11 1009.500 - - - - S     205.12
2013-Jun-06 20:08:14 1010.100 - - - - S     205.12
2013-Jun-06 21:08:15 1010.600 - - - - S     205.12
2013-Jun-06 22:08:09 1010.900 - - - - S     205.12
2013-Jun-06 23:08:08 1011.400 - - - - S     205.12

Temperatura Máxima:25°    Temperatura Mínima:
Presión Máxima:1011.400 Hpa    Presión Mínima:1008.600 Hpa


Volver